TimeCDT,TemperatureF,Dew PointF,Humidity,Sea Level PressureIn,VisibilityMPH,Wind Direction,Wind SpeedMPH,Gust SpeedMPH,PrecipitationIn,Events,Conditions,WindDirDegrees,DateUTC
12:11 AM,46.4,44.6,93,29.92,10.0,Calm,Calm,-,N/A,,Clear,0,2012-10-03 05:11:00
12:31 AM,44.6,41.0,87,29.92,10.0,Calm,Calm,-,N/A,,Clear,0,2012-10-03 05:31:00
12:52 AM,46.4,42.8,87,29.91,10.0,Calm,Calm,-,N/A,,Clear,0,2012-10-03 05:52:00
1:11 AM,46.4,44.6,93,29.92,10.0,Calm,Calm,-,N/A,,Clear,0,2012-10-03 06:11:00
1:31 AM,44.6,42.8,93,29.92,10.0,Calm,Calm,-,N/A,,Clear,0,2012-10-03 06:31:00
1:41 AM,44.6,42.8,93,29.91,10.0,Calm,Calm,-,N/A,,Clear,0,2012-10-03 06:41:00
2:10 AM,44.6,42.8,93,29.92,10.0,NW,4.6,-,N/A,,Clear,320,2012-10-03 07:10:00
2:30 AM,44.6,42.8,93,29.93,10.0,Calm,Calm,-,N/A,,Clear,0,2012-10-03 07:30:00
2:34 AM,44.6,41.0,87,29.93,10.0,Calm,Calm,-,N/A,,Clear,0,2012-10-03 07:34:00
2:51 AM,44.6,42.8,93,29.93,10.0,Calm,Calm,-,N/A,,Clear,0,2012-10-03 07:51:00
3:11 AM,44.6,42.8,93,29.93,10.0,Calm,Calm,-,N/A,,Clear,0,2012-10-03 08:11:00
3:32 AM,44.6,41.0,87,29.93,10.0,Calm,Calm,-,N/A,,Clear,0,2012-10-03 08:32:00
3:51 AM,42.8,41.0,93,29.94,10.0,Calm,Calm,-,N/A,,Clear,0,2012-10-03 08:51:00
4:11 AM,44.6,42.8,93,29.94,7.0,Calm,Calm,-,N/A,,Clear,0,2012-10-03 09:11:00
4:32 AM,42.8,41.0,93,29.94,10.0,Calm,Calm,-,N/A,,Clear,0,2012-10-03 09:32:00
4:51 AM,42.8,41.0,93,29.94,7.0,Calm,Calm,-,N/A,,Clear,0,2012-10-03 09:51:00
5:11 AM,42.8,41.0,93,29.94,10.0,Calm,Calm,-,N/A,,Clear,0,2012-10-03 10:11:00
5:32 AM,42.8,41.0,93,29.94,10.0,Calm,Calm,-,N/A,,Clear,0,2012-10-03 10:32:00
5:51 AM,42.8,41.0,93,29.95,5.0,Calm,Calm,-,N/A,,Clear,0,2012-10-03 10:51:00
6:11 AM,42.8,41.0,93,29.95,5.0,Calm,Calm,-,N/A,,Clear,0,2012-10-03 11:11:00
6:32 AM,42.8,41.0,93,29.95,2.0,Calm,Calm,-,N/A,,Clear,0,2012-10-03 11:32:00
6:51 AM,41.0,41.0,100,29.95,4.0,Calm,Calm,-,N/A,,Clear,0,2012-10-03 11:51:00
7:11 AM,41.0,37.4,87,29.96,3.0,Calm,Calm,-,N/A,,Clear,0,2012-10-03 12:11:00
7:32 AM,41.0,41.0,100,29.95,3.0,Calm,Calm,-,N/A,,Clear,0,2012-10-03 12:32:00
7:51 AM,44.6,42.8,93,29.96,4.0,Calm,Calm,-,N/A,,Clear,0,2012-10-03 12:51:00
8:11 AM,46.4,44.6,93,29.96,7.0,SSE,3.5,-,N/A,,Clear,160,2012-10-03 13:11:00
8:32 AM,46.4,44.6,93,29.96,7.0,SE,4.6,-,N/A,,Clear,140,2012-10-03 13:32:00
8:51 AM,48.2,46.4,93,29.96,10.0,Calm,Calm,-,N/A,,Clear,0,2012-10-03 13:51:00
9:12 AM,51.8,48.2,88,29.96,10.0,SE,3.5,-,N/A,,Clear,140,2012-10-03 14:12:00
9:31 AM,53.6,46.4,77,29.96,10.0,SE,4.6,-,N/A,,Clear,130,2012-10-03 14:31:00
9:51 AM,55.4,46.4,72,29.96,10.0,SE,4.6,-,N/A,,Clear,130,2012-10-03 14:51:00
10:11 AM,57.2,44.6,63,29.96,10.0,ESE,4.6,-,N/A,,Clear,120,2012-10-03 15:11:00
10:31 AM,59.0,44.6,59,29.96,10.0,ESE,3.5,-,N/A,,Clear,120,2012-10-03 15:31:00
10:51 AM,60.8,44.6,55,29.95,10.0,Calm,Calm,-,N/A,,Clear,0,2012-10-03 15:51:00
11:11 AM,64.4,46.4,52,29.95,10.0,East,3.5,-,N/A,,Clear,100,2012-10-03 16:11:00
11:32 AM,68.0,46.4,46,29.94,10.0,Calm,Calm,-,N/A,,Clear,0,2012-10-03 16:32:00
11:51 AM,68.0,44.6,43,29.94,10.0,East,3.5,-,N/A,,Clear,80,2012-10-03 16:51:00
12:11 PM,71.6,46.4,41,29.93,10.0,ESE,5.8,-,N/A,,Clear,110,2012-10-03 17:11:00
12:52 PM,71.6,42.8,35,29.92,10.0,ESE,5.8,-,N/A,,Clear,110,2012-10-03 17:52:00
1:11 PM,71.6,42.8,35,29.91,10.0,ENE,4.6,-,N/A,,Clear,70,2012-10-03 18:11:00
1:31 PM,73.4,41.0,31,29.90,10.0,East,6.9,-,N/A,,Clear,80,2012-10-03 18:31:00
1:52 PM,73.4,39.2,29,29.89,10.0,ENE,3.5,-,N/A,,Clear,70,2012-10-03 18:52:00
2:11 PM,73.4,37.4,27,29.89,10.0,SE,8.1,-,N/A,,Clear,130,2012-10-03 19:11:00
2:31 PM,73.4,39.2,29,29.89,10.0,South,5.8,-,N/A,,Clear,170,2012-10-03 19:31:00
2:52 PM,73.4,39.2,29,29.88,10.0,SSE,3.5,-,N/A,,Clear,160,2012-10-03 19:52:00
3:11 PM,73.4,41.0,31,29.88,10.0,SE,9.2,-,N/A,,Clear,140,2012-10-03 20:11:00
3:31 PM,73.4,39.2,29,29.87,10.0,South,3.5,-,N/A,,Clear,190,2012-10-03 20:31:00
3:51 PM,73.4,41.0,31,29.87,10.0,Calm,Calm,-,N/A,,Clear,0,2012-10-03 20:51:00
4:11 PM,73.4,41.0,31,29.87,10.0,Calm,Calm,-,N/A,,Clear,0,2012-10-03 21:11:00
4:31 PM,73.4,39.2,29,29.87,10.0,South,3.5,-,N/A,,Clear,180,2012-10-03 21:31:00
4:51 PM,73.4,39.2,29,29.88,10.0,SSE,3.5,-,N/A,,Clear,150,2012-10-03 21:51:00
5:11 PM,73.4,39.2,29,29.88,10.0,SSE,4.6,-,N/A,,Clear,160,2012-10-03 22:11:00
5:31 PM,71.6,37.4,29,29.88,10.0,Calm,Calm,-,N/A,,Clear,0,2012-10-03 22:31:00
5:51 PM,71.6,39.2,31,29.88,10.0,SSE,3.5,-,N/A,,Clear,160,2012-10-03 22:51:00
6:11 PM,71.6,41.0,33,29.89,10.0,Calm,Calm,-,N/A,,Clear,0,2012-10-03 23:11:00
6:31 PM,68.0,44.6,43,29.89,10.0,ESE,3.5,-,N/A,,Clear,120,2012-10-03 23:31:00
6:51 PM,62.6,44.6,52,29.90,10.0,SSE,3.5,-,N/A,,Clear,160,2012-10-03 23:51:00
7:11 PM,62.6,44.6,52,29.90,10.0,SSE,5.8,-,N/A,,Clear,150,2012-10-04 00:11:00
7:31 PM,60.8,44.6,55,29.90,10.0,SSE,3.5,-,N/A,,Clear,150,2012-10-04 00:31:00
8:11 PM,57.2,46.4,67,29.91,10.0,SE,5.8,-,N/A,,Clear,130,2012-10-04 01:11:00
8:31 PM,57.2,46.4,67,29.91,10.0,SE,4.6,-,N/A,,Clear,130,2012-10-04 01:31:00
8:51 PM,57.2,46.4,67,29.91,10.0,ESE,3.5,-,N/A,,Clear,110,2012-10-04 01:51:00
9:31 PM,55.4,48.2,77,29.92,10.0,Calm,Calm,-,N/A,,Clear,0,2012-10-04 02:31:00
9:52 PM,55.4,46.4,72,29.92,10.0,Calm,Calm,-,N/A,,Clear,0,2012-10-04 02:52:00
10:11 PM,53.6,46.4,77,29.92,10.0,SE,3.5,-,N/A,,Clear,130,2012-10-04 03:11:00
10:31 PM,53.6,44.6,72,29.92,10.0,ESE,5.8,-,N/A,,Clear,120,2012-10-04 03:31:00
10:52 PM,55.4,46.4,72,29.92,10.0,SE,4.6,-,N/A,,Clear,130,2012-10-04 03:52:00
11:11 PM,57.2,46.4,67,29.93,10.0,SE,3.5,-,N/A,,Clear,140,2012-10-04 04:11:00
11:31 PM,55.4,44.6,67,29.93,10.0,Calm,Calm,-,N/A,,Clear,0,2012-10-04 04:31:00
11:52 PM,53.6,44.6,72,29.93,10.0,Calm,Calm,-,N/A,,Clear,0,2012-10-04 04:52:00